Mexico City Airport, Mexico

12:05 PM CDT on September 29, 2016 (GMT -0500)
Lic Benito Juarez International

Weather History for MMMX - June, 2011

Change the Weather History Date:

Friday, June 10, 2011

  Actual Average Record
Temperature  
Mean Temperature 70 °F -  
Max Temperature 86 °F 77 °F 87 °F (2005)
Min Temperature 55 °F 55 °F 48 °F (2006)
Cooling Degree Days 6    
Growing Degree Days 20 (Base 50)    
Moisture  
Dew Point 43 °F    
Average Humidity 45    
Maximum Humidity 77    
Minimum Humidity 12    
Precipitation  
Precipitation 0.00 in - - ()
Sea Level Pressure  
Sea Level Pressure 30.13 in    
Wind  
Wind Speed 7 mph ()    
Max Wind Speed 20 mph    
Max Gust Speed 32 mph    
Visibility 7.0 miles    
Events      
Averages and records for this station are not official NWS values.
T = Trace of Precipitation, MM = Missing Value Source: Averaged Metar Reports

Daily Weather History Graph

Daily Weather History Graph

Search for Another Location

Airport or City:

Trip Planner

Search our weather history database for the weather conditions in past years. The results will help you decide how hot, cold, wet, or windy it might be!

Date:

Astronomy

Jun. 10, 2011 Rise Set
Actual Time 6:57 AM CDT 8:14 PM CDT
Civil Twilight 6:33 AM CDT 8:38 PM CDT
Nautical Twilight 6:04 AM CDT 9:07 PM CDT
Astronomical Twilight 5:34 AM CDT 9:37 PM CDT
Moon 3:16 PM CDT (6/10) 2:24 AM CDT (6/10)
Length of Visible Light 14h 05m
Length of Day
13h 16m
Waxing Gibbous, 68% of the Moon is Illuminated
Jun 10
Waxing Gibbous
Jun 15
Full
Jun 23
Last Quarter
Jul 1
New
Jul 8
First Quarter

Hourly Weather History & Observations

Time (CDT) Temp. Dew Point Humidity Pressure Visibility Wind Dir Wind Speed Gust Speed Precip Events Conditions
1:48 AM 60.8 °F 48.2 °F 63% 30.30 in 8.0 mi NNE 4.6 mph - N/A   Clear
2:45 AM 60.8 °F 50.0 °F 68% 30.27 in 8.0 mi NE 4.6 mph - N/A   Clear
3:53 AM 59.0 °F 50.0 °F 72% 29.69 in 8.0 mi NE 4.6 mph - N/A   Clear
4:47 AM 59.0 °F 50.0 °F 72% 30.27 in 7.0 mi ENE 4.6 mph - N/A   Clear
5:48 AM 55.4 °F 48.2 °F 77% 30.27 in 5.0 mi NE 5.8 mph - N/A   Clear
7:21 AM 55.4 °F 48.2 °F 77% 30.29 in 5.0 mi ENE 4.6 mph - N/A   Clear
7:43 AM 57.2 °F 48.2 °F 72% 30.30 in 5.0 mi NE 3.5 mph - N/A   Clear
8:20 AM 60.8 °F 48.2 °F 63% 30.31 in 5.0 mi ENE 3.5 mph - N/A   Clear
8:21 AM 60.8 °F 48.2 °F 63% 30.31 in 5.0 mi ENE 5.8 mph - N/A   Clear
8:46 AM 62.6 °F 48.2 °F 59% 30.32 in 5.0 mi NE 5.8 mph - N/A   Clear
9:20 AM 64.4 °F 48.2 °F 56% 30.32 in 5.0 mi ENE 6.9 mph - N/A   Clear
9:43 AM 66.2 °F 50.0 °F 56% 29.74 in 5.0 mi ENE 5.8 mph - N/A   Clear
10:43 AM 69.8 °F 48.2 °F 46% 30.30 in 5.0 mi NNE 3.5 mph - N/A   Clear
11:30 AM 73.4 °F 44.6 °F 36% 30.28 in 5.0 mi WNW 3.5 mph - N/A   Clear
11:43 AM 75.2 °F 44.6 °F 34% 30.28 in 5.0 mi North 6.9 mph - N/A   Clear
2:46 PM 82.4 °F 33.8 °F 17% 30.21 in 6.0 mi NNW 16.1 mph - N/A   Scattered Clouds
3:38 PM 86.0 °F 30.2 °F 13% 30.18 in 6.0 mi North 12.7 mph 24.2 mph N/A   Scattered Clouds
3:45 PM 86.0 °F 30.2 °F 13% 29.57 in 6.0 mi NNW 11.5 mph 24.2 mph N/A   Scattered Clouds
4:42 PM 84.2 °F 26.6 °F 12% 30.16 in 6.0 mi North 16.1 mph 32.2 mph N/A   Scattered Clouds
5:45 PM 84.2 °F 30.2 °F 14% 30.15 in 8.0 mi NW 12.7 mph - N/A   Scattered Clouds
6:52 PM 82.4 °F 30.2 °F 15% 29.57 in 10.0 mi North 16.1 mph - N/A   Scattered Clouds
7:43 PM 78.8 °F 32.0 °F 18% 30.14 in 10.0 mi North 15.0 mph - N/A   Partly Cloudy
7:45 PM 78.8 °F 32.0 °F 18% 30.14 in 10.0 mi North 15.0 mph - N/A   Partly Cloudy
8:43 PM 75.2 °F 44.6 °F 34% 30.18 in 10.0 mi North 18.4 mph - N/A   Partly Cloudy
8:47 PM 75.2 °F 44.6 °F 34% 30.18 in 10.0 mi North 18.4 mph - N/A   Partly Cloudy
9:44 PM 69.8 °F 50.0 °F 49% 29.63 in 10.0 mi NNE 19.6 mph - N/A   Clear
10:48 PM 66.2 °F 50.0 °F 56% 30.25 in 10.0 mi NNE 15.0 mph - N/A   Clear